Regional Weather Roundup
Issued by NWS

Home | Current Version | Previous Version | Graphics & Text | Print | Product List | Glossary On
Versions: 1 2 3 4 5 6 7 8 9 10 11 12 13 14 15 16 17 18 19 20 21 22 23 24 25 26 27 28 29 30 31 32 33 34 35 36 37 38 39 40 41 42 43 44 45 46 47 48 49 50
000
ASUS43 KOAX 270402
RWRNE

WEATHER ROUNDUP FOR NEBRASKA
NATIONAL WEATHER SERVICE OMAHA NE
1000 PM CST WED NOV 26 2014

NOTES: SATELLITE DATA IS BEING USED TO AUGMENT CLOUD COVER ABOVE
       12000 FEET.
       "FAIR" INDICATES FEW OR NO CLOUDS BELOW 12,000 FEET WITH NO
       SIGNIFICANT WEATHER AND/OR OBSTRUCTIONS TO VISIBILITY.

  * THESE STATIONS DO NOT REPORT WEATHER SUCH AS RAIN...SNOW OR FOG.

NEZ001>004-019>022-054>056-270500-
NEBRASKA PANHANDLE

CITY           SKY/WX    TMP DP  RH WIND       PRES   REMARKS
SCOTTSBLUFF    CLOUDY    24  22  91 E9        30.26F WCI  14
ALLIANCE       CLOUDY    24  23  96 SW6       30.28R WCI  17
CHADRON        CLOUDY   N/A N/A N/A S10       30.26F
SIDNEY         PTCLDY    17  14  88 S9        30.28S WCI   6
$$

NEZ057>060-069>072-079>082-270500-
SOUTHWEST NEBRASKA

CITY           SKY/WX    TMP DP  RH WIND       PRES   REMARKS
NORTH PLATTE   CLOUDY    25  19  78 SE5       30.34F WCI  19
IMPERIAL       CLOUDY    31  27  85 SE3       30.33S
MCCOOK         CLOUDY    31  20  63 CALM      30.37F
$$

NEZ005>010-023>029-035>040-094-270500-
NORTH CENTRAL NEBRASKA

CITY           SKY/WX    TMP DP  RH WIND       PRES   REMARKS
VALENTINE      CLOUDY    23  18  81 E5        30.35S WCI  17
BROKEN BOW     MOCLDY    21  15  78 NE5       30.38S WCI  15
ORD            MOCLDY    21  15  78 CALM      30.41R
$$

NEZ041-046>049-061>064-073>077-083>087-270500-
SOUTH CENTRAL NEBRASKA

CITY           SKY/WX    TMP DP  RH WIND       PRES   REMARKS
GRAND ISLAND   MOCLDY    22  16  78 N3        30.43R
AURORA         CLOUDY    22  15  76 NW6       30.42R WCI  14
HASTINGS       PTCLDY    20  14  77 N3        30.42R
KEARNEY *      PTCLDY    23  16  74 CALM      30.42R
YORK           MOCLDY    23  16  74 N6        30.43R WCI  16
$$

NEZ011>018-030>034-042>045-270500-
NORTHEAST NEBRASKA

CITY           SKY/WX    TMP DP  RH WIND       PRES   REMARKS
NORFOLK        MOCLDY    15  10  80 NW8       30.43R WCI   4
BLAIR          CLOUDY    24  18  80 NW12      30.41R WCI  13
COLUMBUS *     PTCLDY    19   9  63 N6        30.45R WCI  11
TEKAMAH        CLOUDY    21  14  74 NW14      30.45R WCI   8
$$

NEZ050>053-065>068-078-088>093-270500-
SOUTHEAST NEBRASKA

CITY           SKY/WX    TMP DP  RH WIND       PRES   REMARKS
LINCOLN        PTCLDY    20  14  77 N10       30.45R WCI   9
OMAHA EPPLEY   CLOUDY    23  18  81 N15       30.44R WCI  10
FALLS CITY     CLOUDY    26  19  74 NW10G21   30.41R WCI  16
$$

NEZ044-045-051>053-067-270500-
OMAHA AREA

CITY           SKY/WX    TMP DP  RH WIND       PRES   REMARKS
OMAHA EPPLEY   CLOUDY    23  18  81 N15       30.44R WCI  10
BLAIR          CLOUDY    24  18  80 NW12      30.41R WCI  13
OFFUTT AFB     CLOUDY    24  18  77 N8        30.42R WCI  15
$$


USA.gov is the U.S. government's official web portal to all federal, state and local government web resources and services.